STARLINK-11159 [DTC] (60905 NORAD) Tracking and Keplerian Element Data

This shows tracking and keplerian element data for the satellite.

Feedback or suggestion? Click here.




ElementValue
Catalog60905
NameSTARLINK-11159 [DTC]
Epoch Orbit795
Epoch Day286.8380854
Epoch Year2024
RAAN140.2845
Inclination53.1581
Eccentricity7.7E-05
Argument of Perigee57.3374
Mean Anonmoly302.7722
Mean Motion15.76734965
Decay Rate0.00011592
L11 60905U 24154C 24286.83808540 .00011592 00000+0 74701-4 0 9994
L22 60905 53.1581 140.2845 0000770 57.3374 302.7722 15.76734965 7959



Live tracking and technical data element details for STARLINK-11159 [DTC] (NORAD 60905). STARLINK-11159 [DTC] can be tracked NOW for your location showing map with azimuth and elevation plus other details from your city location.







IsCatalogInMostPopularTable: catalog: 60905, numindb: 8
Update: records affected: 1



GetName: 60905 STARLINK-11159 [DTC]

Hit Count: updated at: Wed, 04 Dec 2024 17:45:23 GMT